Weather in Bol'shoy Lyazhdur

Russia / Mari El Republic     56°49′50″N   49°15′01″E
temp.,
°C
wind,
m/s
gust,
m/s
humid.,
%
clouds,
%
prec.,
mm/h
press.,
hPa
HPBL,
m
3 march, wed
wed300:00−6w489652 0.0 998176
03:00−6wsw379673 0.1 999147
06:00−5wnw5996100 0.3 999334
09:00−4nw61093100 0.6 1000555
12:00−4nw71090100 0.5 1001663
15:00−5nw71088100 0.6 1002764
18:00−7wnw51192100 0.1 1003646
21:00−7wnw51090100 0.3 1004715
4 march, thu
thu400:00−9sw489594 0.0 1001193
03:00−6sw6129497 0.5 999526
06:00−5wsw51094100 0.3 996439
09:00−3sw61194100 0.8 995754
12:00−1wsw71192100 0.6 992967
15:00−2wnw3697100 2.4 991453
18:00−5w6158736 2.3 992490
21:00−5nw5119344 2.3 996400
5 march, fri
fri500:00−11wnw479532 0.0 99894
03:00−13nw339527 0.0 99932
06:00−15nw339398 0.0 100127
09:00−15nnw359183 0.0 1002175
12:00−12nnw35900 0.0 1003311
15:00−12nw47890 0.0 1005428
18:00−16wnw349627 0.0 100772
21:00−16wnw349647 0.0 101062
6 march, sat
sat600:00−16w34970 0.0 101150
03:00−16wsw349834 0.0 101264
06:00−17sw349868 0.0 101254
09:00−13ssw359467 0.0 1011185
12:00−9ssw4790100 0.0 1010368
15:00−8ssw468799 0.0 1009589
18:00−10ssw3696100 0.3 1008186
21:00−12sw3496100 0.5 100996
7 march, sun
sun700:00−14nw599499 0.1 1009285
03:00−20wnw349882 0.1 100969
06:00−22w34980 0.0 100942
09:00−17ssw35950 0.0 1008186
12:00−12s589252 0.0 1006404
15:00−11s7139376 0.1 1003659
18:00−9s71394100 1.1 1000968
21:00−8s81494100 2.3 996930